Hutchinson, MN

12:40 AM CST on November 25, 2017 (GMT -0600)
Hutchinson Municipal-Butler

Weather History for KHCD - February, 2013

Change the Weather History Date:

Friday, February 15, 2013

  Actual Average Record
Temperature  
Mean Temperature 8 °F -  
Max Temperature 16 °F 26 °F 50 °F (1981)
Min Temperature 0 °F 7 °F -19 °F (1958)
Degree Days  
Heating Degree Days 57    
Moisture  
Dew Point 2 °F    
Average Humidity 85    
Maximum Humidity 92    
Minimum Humidity 73    
Precipitation  
Precipitation 0.00 in - - ()
Sea Level Pressure  
Sea Level Pressure 30.27 in    
Wind  
Wind Speed 8 mph (WNW)    
Max Wind Speed 13 mph    
Max Gust Speed -    
Visibility 10 miles    
Events Snow    
Averages and records for this station are not official NWS values.
T = Trace of Precipitation, MM = Missing Value Source: NWS Daily Summary

Daily Weather History Graph

Daily Weather History Graph

Search for Another Location

Airport or City:

Trip Planner

Search our weather history database for the weather conditions in past years. The results will help you decide how hot, cold, wet, or windy it might be!

Date:

Astronomy

Feb. 15, 2013 Rise Set
Actual Time 7:17 AM CST 5:46 PM CST
Civil Twilight 6:47 AM CST 6:16 PM CST
Nautical Twilight 6:13 AM CST 6:50 PM CST
Astronomical Twilight 5:39 AM CST 7:24 PM CST
Moon 9:37 AM CST (2/15) No Moon Set
Length of Visible Light 11h 28m
Length of Day
10h 28m
Waxing Crescent, 30% of the Moon is Illuminated
Feb 15
Waxing Crescent
Feb 17
First Quarter
Feb 25
Full
Mar 4
Last Quarter
Mar 11
New

Hourly Weather History & Observations

Time (CST) Temp. Windchill Dew Point Humidity Pressure Visibility Wind Dir Wind Speed Gust Speed Precip Events Conditions
12:08 AM 4.1 °F -10.2 °F -0.8 °F 80% 30.20 in 10.0 mi WNW 9.2 mph - N/A   Mostly Cloudy
12:28 AM 3.6 °F -10.9 °F -1.3 °F 80% 30.20 in 10.0 mi West 9.2 mph - N/A   Scattered Clouds
12:48 AM 3.2 °F -12.2 °F -1.3 °F 82% 30.20 in 10.0 mi West 10.4 mph - N/A   Mostly Cloudy
1:08 AM 3.2 °F -11.3 °F -0.9 °F 83% 30.20 in 10.0 mi West 9.2 mph - N/A   Overcast
1:28 AM 4.1 °F -10.2 °F 0.5 °F 85% 30.20 in 10.0 mi West 9.2 mph - N/A   Overcast
1:48 AM 6.3 °F -7.5 °F 2.8 °F 86% 30.20 in 10.0 mi WNW 9.2 mph - N/A   Overcast
2:28 AM 6.6 °F -7.1 °F 3.7 °F 88% 30.21 in 10.0 mi WNW 9.2 mph - N/A   Overcast
2:48 AM 4.1 °F -9.2 °F 1.4 °F 89% 30.21 in 10.0 mi WNW 8.1 mph - N/A   Mostly Cloudy
3:08 AM 2.8 °F -9.5 °F 0.1 °F 88% 30.21 in 10.0 mi West 6.9 mph - N/A   Scattered Clouds
3:28 AM 2.1 °F -12.6 °F -0.4 °F 89% 30.21 in 10.0 mi WNW 9.2 mph - N/A Snow Light Snow
3:48 AM 2.1 °F -11.6 °F -0.4 °F 89% 30.21 in 10.0 mi WNW 8.1 mph - N/A Snow Light Snow
4:28 AM 1.4 °F -9.9 °F -1.3 °F 88% 30.22 in 10.0 mi WNW 5.8 mph - N/A Snow Light Snow
4:48 AM 1.6 °F -14.2 °F -1.1 °F 88% 30.23 in 10.0 mi WNW 10.4 mph - N/A   Scattered Clouds
5:08 AM 1.4 °F -13.5 °F -1.3 °F 88% 30.23 in 10.0 mi WNW 9.2 mph - N/A   Scattered Clouds
5:28 AM 1.8 °F -10.8 °F -0.9 °F 88% 30.24 in 10.0 mi WNW 6.9 mph - N/A   Scattered Clouds
5:48 AM 2.1 °F -11.6 °F -0.6 °F 88% 30.24 in 10.0 mi WNW 8.1 mph - N/A   Scattered Clouds
6:08 AM 1.4 °F -12.5 °F -1.3 °F 88% 30.25 in 10.0 mi WNW 8.1 mph - N/A   Clear
6:28 AM 0.9 °F -11.9 °F -1.8 °F 88% 30.25 in 10.0 mi West 6.9 mph - N/A   Clear
6:48 AM 0.5 °F -12.3 °F -2.2 °F 88% 30.25 in 10.0 mi WNW 6.9 mph - N/A   Clear
7:08 AM 0.3 °F -12.6 °F -2.2 °F 89% 30.26 in 10.0 mi West 6.9 mph - N/A   Clear
7:28 AM -0.8 °F -12.5 °F -3.3 °F 89% 30.27 in 10.0 mi WNW 5.8 mph - N/A   Clear
7:48 AM -0.9 °F -14.1 °F -3.5 °F 89% 30.27 in 10.0 mi WNW 6.9 mph - N/A   Clear
8:08 AM -0.4 °F -10.4 °F -3.1 °F 88% 30.28 in 10.0 mi WNW 4.6 mph - N/A   Clear
8:28 AM -0.6 °F -8.5 °F -3.1 °F 89% 30.29 in 7.0 mi West 3.5 mph - N/A   Clear
8:48 AM 0.3 °F -9.5 °F -2.4 °F 88% 30.30 in 10.0 mi West 4.6 mph - N/A   Clear
9:09 AM 1.4 °F - -1.7 °F 87% 30.30 in - Calm Calm - N/A   Unknown
9:29 AM 3.2 °F -9.1 °F -0.4 °F 85% 30.30 in - WNW 6.9 mph - N/A   Unknown
9:48 AM 5.5 °F -5.0 °F 1.9 °F 85% 30.30 in - WNW 5.8 mph - N/A   Unknown
10:08 AM 6.6 °F -5.0 °F 2.8 °F 84% 30.31 in - WNW 6.9 mph - N/A   Unknown
10:28 AM 7.5 °F -3.9 °F 3.2 °F 82% 30.31 in - WNW 6.9 mph - N/A   Unknown
10:49 AM 9.1 °F -3.0 °F 4.3 °F 81% 30.31 in - WNW 8.1 mph - N/A   Clear
11:08 AM 9.3 °F -1.7 °F 3.9 °F 79% 30.31 in - WNW 6.9 mph - N/A   Clear
11:48 AM 11.7 °F 0.0 °F 5.9 °F 78% 30.30 in - West 8.1 mph - N/A   Clear
12:08 PM 11.8 °F 1.3 °F 5.7 °F 76% 30.31 in - West 6.9 mph - N/A   Clear
12:28 PM 14.0 °F 2.9 °F 7.5 °F 75% 30.30 in - WNW 8.1 mph - N/A   Clear
12:48 PM 14.0 °F 2.9 °F 7.3 °F 75% 30.30 in - WNW 8.1 mph - N/A   Clear
1:08 PM 14.0 °F 1.2 °F 7.3 °F 75% 30.30 in - WNW 10.4 mph - N/A   Clear
1:28 PM 14.0 °F 1.2 °F 7.3 °F 75% 30.30 in - WNW 10.4 mph - N/A   Clear
1:46 PM 14.7 °F 3.8 °F 7.9 °F 74% 30.30 in - West 8.1 mph - N/A   Clear
2:08 PM 15.4 °F 3.8 °F 8.2 °F 73% 30.29 in - WNW 9.2 mph - N/A   Clear
2:28 PM 16.0 °F 2.9 °F 9.0 °F 74% 30.29 in - West 11.5 mph - N/A   Clear
2:47 PM 15.1 °F 2.5 °F 9.7 °F 79% 30.29 in - West 10.4 mph - N/A   Clear
3:08 PM 14.7 °F 1.4 °F 9.3 °F 79% 30.29 in - West 11.5 mph - N/A   Clear
3:27 PM 15.4 °F 2.3 °F 10.0 °F 79% 30.29 in - West 11.5 mph - N/A   Clear
3:48 PM 15.4 °F 3.0 °F 9.5 °F 77% 30.29 in - West 10.4 mph - N/A   Clear
4:09 PM 14.0 °F 0.5 °F 9.3 °F 82% 30.29 in - West 11.5 mph - N/A   Clear
4:29 PM 14.0 °F -0.2 °F 9.3 °F 82% 30.29 in - West 12.7 mph - N/A   Clear
4:48 PM 14.0 °F 1.2 °F 9.5 °F 82% 30.30 in - West 10.4 mph - N/A   Clear
5:08 PM 11.7 °F -1.7 °F 7.3 °F 83% 30.30 in - West 10.4 mph - N/A   Unknown
5:28 PM 10.0 °F -2.9 °F 5.5 °F 82% 30.29 in - West 9.2 mph - N/A   Unknown
5:48 PM 9.1 °F -4.9 °F 5.4 °F 85% 30.29 in 10.0 mi West 10.4 mph - N/A   Clear
6:08 PM 9.1 °F -4.9 °F 5.5 °F 85% 30.29 in 10.0 mi West 10.4 mph - N/A   Clear
6:29 PM 9.1 °F -4.9 °F 5.4 °F 85% 30.29 in 10.0 mi West 10.4 mph - N/A   Clear
6:48 PM 8.1 °F -7.0 °F 4.5 °F 85% 30.29 in 10.0 mi West 11.5 mph - N/A   Clear
7:08 PM 6.6 °F -8.0 °F 3.2 °F 86% 30.29 in 10.0 mi West 10.4 mph - N/A   Clear
7:28 PM 6.6 °F -8.0 °F 3.2 °F 86% 30.28 in 10.0 mi West 10.4 mph - N/A   Clear
7:48 PM 4.3 °F -10.9 °F 1.4 °F 88% 30.28 in 10.0 mi West 10.4 mph - N/A   Clear
8:08 PM 5.0 °F -9.1 °F 2.5 °F 89% 30.28 in 10.0 mi West 9.2 mph - N/A   Clear
8:16 PM 4.8 °F -9.3 °F 2.3 °F 89% 30.28 in 10.0 mi West 9.2 mph - N/A   Clear
8:45 PM 3.2 °F -11.3 °F 1.4 °F 92% 30.28 in 10.0 mi West 9.2 mph - N/A   Clear
9:05 PM 3.2 °F -10.3 °F 1.4 °F 92% 30.28 in 10.0 mi WNW 8.1 mph - N/A   Clear
9:25 PM 5.0 °F -9.1 °F 3.2 °F 92% 30.28 in 10.0 mi WNW 9.2 mph - N/A   Clear
9:45 PM 3.2 °F -9.1 °F 1.4 °F 92% 30.27 in 10.0 mi WNW 6.9 mph - N/A   Clear
10:05 PM 3.2 °F -9.1 °F 1.4 °F 92% 30.27 in 10.0 mi West 6.9 mph - N/A   Clear
10:25 PM 1.4 °F -9.9 °F -0.4 °F 92% 30.27 in 10.0 mi WNW 5.8 mph - N/A   Clear
10:45 PM 1.4 °F -11.3 °F -0.4 °F 92% 30.27 in 10.0 mi WNW 6.9 mph - N/A   Clear
11:04 PM 0.7 °F -10.7 °F -1.5 °F 91% 30.26 in 10.0 mi WNW 5.8 mph - N/A   Clear
11:08 PM 1.4 °F -9.9 °F -0.8 °F 91% 30.26 in 10.0 mi West 5.8 mph - N/A   Clear
11:28 PM -0.2 °F -11.8 °F -2.2 °F 91% 30.25 in 10.0 mi West 5.8 mph - N/A   Clear
11:49 PM 1.8 °F -9.5 °F -0.4 °F 91% 30.25 in 7.0 mi WNW 5.8 mph - N/A Snow Light Snow